This demonstration page uses our WeatherBlox Daily Observations layout. Learn more.

Left ArrowRight Arrow

41.12389, -100.76542

Hourly Observations for August 4, 2019

Temp ( °F °C ) Dew Point ( °F °C ) Humidity (%) Winds ( mph kmh ) Pressure ( in mb ) Visibility ( mi km ) Precip ( " mm )
12:53 am 00:53 Clear 66 18.9 64 17.8 93 93 Calm 30.04 1017 10 16 0.00 0.00
1:53 am 01:53 Clear 66 18.9 63 17.2 90 90 Calm 30.03 1017 10 16 0.00 0.00
2:53 am 02:53 Clear 65 18.3 62 16.7 90 90 ESE 5 7 30.03 1017 10 16 0.00 0.00
3:53 am 03:53 Clear 66 18.9 63 17.2 90 90 VRB 3 6 30.02 1017 10 16 0.00 0.00
4:53 am 04:53 Clear 69 20.6 65 18.3 87 87 S 7 11 30.01 1016 10 16 0.00 0.00
5:53 am 05:53 Clear 68 20 64 17.8 87 87 S 5 7 30.01 1016 10 16 0.00 0.00
6:53 am 06:53 Sunny 65 18.3 62 16.7 90 90 E 3 6 30.02 1017 10 16 0.00 0.00
7:53 am 07:53 Sunny 68 20 65 18.3 90 90 Calm 30.03 1017 10 16 0.00 0.00
8:53 am 08:53 Sunny 73 22.8 66 18.9 79 79 S 3 6 30.03 1017 10 16 0.00 0.00
9:53 am 09:53 Sunny 79 26.1 67 19.4 67 67 SSW 6 9 30.02 1017 10 16 0.00 0.00
10:53 am 10:53 Sunny 83 28.3 68 20 61 61 WSW 7 11 30.01 1016 10 16 0.00 0.00
11:53 am 11:53 Sunny 86 30 68 20 55 55 SSW 6 9 30.00 1016 10 16 0.00 0.00
12:53 pm 12:53 Sunny 89 31.7 68 20 50 50 SSW 10 17 29.99 1016 10 16 0.00 0.00
1:53 pm 13:53 Sunny 90 32.2 66 18.9 45 45 SW 10 17 29.96 1015 10 16 0.00 0.00
2:53 pm 14:53 Sunny 91 32.8 67 19.4 45 45 SSW 10 17 29.96 1015 10 16 0.00 0.00
3:53 pm 15:53 Sunny 90 32.2 66 18.9 45 45 SW 9 15 29.95 1014 10 16 0.00 0.00
4:53 pm 16:53 Sunny 91 32.8 66 18.9 44 44 SSW 10 17 29.91 1013 10 16 0.00 0.00
5:53 pm 17:53 Sunny 91 32.8 67 19.4 45 45 S 9 15 29.89 1012 10 16 0.00 0.00
6:53 pm 18:53 Sunny 86 30 70 21.1 59 59 SSE 8 13 29.91 1013 10 16 0.00 0.00
7:53 pm 19:53 Sunny 81 27.2 70 21.1 69 69 ESE 9 15 29.93 1014 10 16 0.00 0.00
8:53 pm 20:53 Sunny 81 27.2 68 20 65 65 E 13 20 29.99 1016 10 16 0.00 0.00
9:40 pm 21:40 Mostly Cloudy 75 23.9 62 16.7 64 64 NNE 29 46 29.98 1015 10 16 0.00 0.00
9:50 pm 21:50 Mostly Cloudy with Nearby Thunderstorms 73 23 61 16 65 65 NNE 21 33 30.00 1016 10 16 0.00 0.00
9:53 pm 21:53 Mostly Cloudy with Nearby Thunderstorms 73 22.8 60 15.6 64 64 NNE 16 26 30.06 1018 10 16 0.00 0.00
10:28 pm 22:28 Cloudy with Nearby Thunderstorms 69 20.6 62 16.7 78 78 E 22 35 29.99 1016 10 16 0.00 0.00
10:53 pm 22:53 Mostly Cloudy with Light Rain 71 21.7 64 17.8 79 79 ESE 15 24 30.03 1017 10 16 0.00 0.00
11:53 pm 23:53 Mostly Clear 70 21.1 65 18.3 84 84 SE 6 9 30.00 1016 10 16 0.02 0.51

Powered by AerisWeather